Home   Weather   San José de Mayo   Past weeks

Flag for Uruguay Past Weather in San José de Mayo, Uruguay — Yesterday and Last 2 Weeks

Now
54 °F

Clear.


Feels Like: 52 °F
Forecast: 53 / 76 °F
Wind: 7 mph from Northwest

Location: Carrasco

Current Time: Apr 29, 2017 at 4:43:17 am

Latest Report: Apr 29, 2017 at 4:00 am


Visibility: 10 mi

Pressure: 30.09 "Hg

Humidity: 82%

Dew Point: 48 °F

Location of San José de MayoLocation

Past Weather in San José de Mayo — Graph

°F

San José de Mayo Temperature Yesterday

Maximum temperature yesterday: 75 °F (at 1:00 pm)
Minimum temperature yesterday: 52 °F (at 3:00 am)
Average temperature yesterday: 62 °F

High & Low Weather Summary for the Past Weeks

 TemperatureHumidityPressure
High75 °F (Apr 24, 2:00 pm)100% (Apr 19, 8:00 pm)30.15 "Hg (Apr 19, 8:00 pm)
Low46 °F (Apr 23, 2:00 am)29% (Apr 24, 2:00 pm)29.42 "Hg (Apr 26, 12:25 am)
Average62 °F74%29.88 "Hg
* Reported Apr 19 4:00 am — Apr 29 3:00 am, San José de Mayo, Weather by CustomWeather, © 2017

Note: Actual official high and low records may vary slightly from our data, if they occured in-between our weather recording intervals... More about our weather records

Advertising

San José de Mayo Weather History for the Previous 24 Hours

Scroll right to see more
 ConditionsComfort  
Time TempWeatherWind HumidityBarometerVisibility
3:00 am
Sat, Apr 29
54 °FClear.6 mph88%30.09 "Hg10 mi
2:00 am55 °FClear.7 mph82%30.09 "Hg10 mi
1:00 am55 °FClear.6 mph82%30.09 "Hg10 mi
12:00 am59 °FClear.6 mph72%30.09 "Hg10 mi
11:00 pm
Fri, Apr 28
59 °FClear.7 mph72%30.07 "Hg10 mi
10:00 pm59 °FClear.8 mph68%30.04 "Hg10 mi
9:00 pm59 °FClear.6 mph68%30.04 "Hg10 mi
8:00 pm61 °FClear.6 mph68%30.04 "Hg10 mi
7:00 pm64 °FClear.8 mph64%30.01 "Hg10 mi
6:00 pm68 °FSunny.8 mph56%30.01 "Hg10 mi
5:00 pm73 °FSunny.13 mph47%30.01 "Hg10 mi
4:00 pm73 °FSunny.14 mph47%30.01 "Hg10 mi
3:00 pm73 °FSunny.17 mph44%30.01 "Hg10 mi
2:00 pm75 °FSunny.17 mph41%30.01 "Hg10 mi
1:00 pm75 °FSunny.21 mph41%30.04 "Hg10 mi
12:00 pm72 °FSunny.16 mph44%30.04 "Hg10 mi
11:00 am68 °FSunny.18 mph49%30.04 "Hg10 mi
10:00 am63 °FSunny.13 mph56%30.04 "Hg10 mi
9:00 am59 °FSunny.14 mph59%30.04 "Hg10 mi
8:00 am55 °FSunny.10 mph63%30.01 "Hg10 mi
7:00 am52 °FClear.9 mph72%30.01 "Hg10 mi
6:00 am52 °FClear.9 mph67%30.01 "Hg10 mi
5:00 am52 °FClear.8 mph67%29.98 "Hg10 mi
4:00 am52 °FClear.7 mph67%29.98 "Hg10 mi
Weather by CustomWeather, © 2017

See weather overviewHow to use our weather pages